Location: Barnston
(51.8500°N, 0.4000°E)
Time: 19:00:43
(UTC+00:00)

Cosmos 1484 Rocket - Visible Passes

Search period start: 22 April 2024 00:00
Search period end: 02 May 2024 00:00
Orbit: 481 x 527 km, 97.6° (Epoch: 21 April)

Date Brightness Start Highest point End Pass type
(mag) Time Alt. Az. Time Alt. Az. Time Alt. Az.
22 Apr 4.9 03:49:42 10° NE 03:52:44 25° E 03:55:44 10° SSE visible
23 Apr 5.4 03:31:54 10° NE 03:34:15 16° E 03:36:36 10° SE visible
24 Apr 5.8 03:14:50 10° ENE 03:15:42 11° E 03:16:34 10° ESE visible
27 Apr 4.9 03:51:34 10° NE 03:54:38 26° E 03:57:41 10° SSE visible
28 Apr 5.4 03:33:35 10° NE 03:36:01 17° E 03:38:26 10° SE visible
29 Apr 5.8 03:16:14 10° ENE 03:17:19 11° E 03:18:24 10° ESE visible
